Cloud_Cover
40 10 0 0 0 0 0 0 0 0 0 0 0 0 0 0 0 0 0 0 0 0 0 0 0 0 0 0 0 0 0 0 0 0 18 90 100 100 100 97 100 99 97 32 7
0 0 0 0 0 0 0 0 0 0 0 1 42 85 100 100 0 0 0 0 0 0 0 0 0 0 0 0 0 0 0 0 0 1 14 98 100 100 100 99 100 100 99 100 77
0 0 0 0 0 0 0 0 0 0 0 8 100 100 100 94 11 0 0 0 0 0 0 0 0 0 0 0 0 0 0 0 0 0 7 67 5 100 100 94 100 100 100 48 8
0 0 0 0 0 0 0 0 0 0 0 2 80 99 99 88 2 0 0 0 0 0 0 0 0 0 0 0 0 0 0 0 0 0 0 22 100 13 100 97 5 61 98 17 34
0 0 0 0 0 0 0 0 0 0 5 48 100 100 92 54 35 0 0 0 0 0 0 0 0 0 0 0 0 0 0 0 0 0 0 0 15 16 25 100 5 0 4 1 0
0 0 0 0 0 0 0 0 20 36 24 100 100 100 98 96 0 0 0 0 0 0 0 0 0 0 0 0 0 0 0 0 0 0 0 0 0 1 6 52 97 2 1 2 0
0 0 0 0 0 0 0 0 43 8 26 41 100 100 100 6 0 0 0 0 0 0 0 0 0 0 0 0 0 0 0 0 0 0 0 0 0 0 1 18 5 40 5 95 100
0 0 0 0 0 0 0 0 0 0 7 0 52 98 100 0 0 0 0 0 0 0 0 0 8 1 0 0 0 0 0 0 0 0 0 0 0 0 0 0 5 5 81 100 100
0 0 0 0 0 1 0 0 0 0 0 1 16 27 9 0 2 35 28 1 0 0 0 0 30 4 0 0 0 0 0 0 0 0 0 0 0 0 0 0 1 5 5 82 100
0 0 0 0 1 5 0 0 0 0 0 0 4 17 0 0 1 0 7 16 9 4 0 0 0 0 5 75 11 0 0 0 0 0 0 0 0 0 0 0 0 0 20 5 17
0 0 0 0 0 0 3 0 0 0 3 5 3 5 4 2 24 96 10 9 3 4 2 1 36 100 0 5 1 0 0 0 0 2 0 0 0 0 0 0 0 0 0 89 94
0 0 0 0 0 0 2 1 0 0 3 87 48 26 5 5 50 83 64 12 61 92 69 76 68 14 6 8 76 76 0 0 0 0 2 0 0 1 4 0 0 0 0 1 98
0 0 0 0 0 0 0 0 0 0 1 15 73 14 42 100 100 86 86 76 79 100 100 99 7 6 32 24 68 100 28 0 0 0 4 0 0 0 5 0 0 0 0 0 3
0 5 3 4 0 0 0 0 0 0 4 22 26 66 22 67 74 97 38 93 21 41 100 76 96 73 100 12 80 100 21 2 0 0 1 23 4 0 4 4 0 0 0 0 0
2 5 5 5 0 0 0 0 0 0 5 17 76 88 100 100 67 60 88 41 67 37 93 10 35 96 51 100 5 7 4 5 0 5 7 16 100 0 5 40 2 0 0 0 0
5 37 27 0 0 0 0 0 0 2 3 39 100 100 100 100 98 90 100 100 100 100 34 86 87 72 15 100 95 40 4 67 16 2 99 5 100 4 90 0 15 4 0 0 0
64 45 0 0 1 0 0 3 19 45 4 26 20 97 100 97 52 58 100 100 100 100 100 100 80 91 52 33 7 61 13 100 100 50 78 23 100 7 0 0 24 75 5 5 0
94 7 0 0 4 0 0 3 5 4 54 33 74 95 54 100 60 100 100 100 100 100 100 100 100 75 100 57 4 47 14 99 93 46 0 35 84 0 5 5 5 98 80 5 5
68 4 2 5 0 0 13 5 42 89 66 28 78 8 34 52 97 62 68 100 96 98 100 100 100 100 46 84 100 49 24 77 80 93 0 2 0 1 4 45 8 36 100 33 7
6 5 4 0 0 0 18 5 65 80 50 61 96 69 99 100 100 100 100 100 100 53 84 100 100 100 100 21 91 99 23 61 100 50 76 2 0 0 6 27 2 49 100 100 100
5 44 5 5 0 2 1 13 5 88 93 71 65 100 92 100 100 100 100 100 100 100 96 100 100 100 100 100 46 100 93 11 92 87 85 5 0 0 100 96 25 5 97 100 76
4 6 5 1 0 3 6 5 80 98 20 31 89 79 100 100 100 100 100 100 100 100 100 86 95 100 91 94 89 100 95 6 79 62 24 5 0 25 100 100 30 91 97 100 100
0 0 5 5 2 2 0 4 100 22 92 48 98 100 100 100 100 100 100 100 100 100 98 100 95 96 100 100 98 100 100 45 17 16 23 7 39 100 89 98 81 60 100 100 100
0 0 5 5 0 1 10 17 46 7 85 98 99 100 100 100 100 100 100 100 100 100 100 100 100 100 100 100 99 98 90 86 100 100 75 40 77 100 100 100 100 100 100 100 100
0 4 5 5 6 1 65 10 2 66 22 71 92 100 100 100 100 100 100 100 100 100 100 100 100 87 94 100 100 97 87 7 82 100 100 94 88 100 100 100 100 100 100 100 100
4 12 29 54 5 5 28 2 18 83 74 100 100 100 100 100 100 100 100 100 100 100 100 100 100 100 100 100 100 19 100 90 99 100 100 100 100 100 100 100 100 100 100 100 100
36 39 96 43 5 34 5 70 7 100 61 94 100 99 48 97 97 93 100 100 100 100 100 100 100 100 100 100 100 100 6 36 43 63 13 87 100 100 100 100 100 100 100 100 100